Location: ??????
(33.2194°N, 35.3436°E)
Time: 19:14:41
(UTC+00:00)

Daily predictions for brighter satellites

Satellite Brightness Start Highest point End
(mag) Time Altitude Azimuth Time Altitude Azimuth Time Altitude Azimuth
Cosmos 1992 Rocket 4.0 15:23:11 10° S 15:28:19 62° ESE 15:33:29 10° NNE
CZ-4C R/B 3.5 15:22:28 10° NNW 15:29:29 41° NE 15:37:13 10° ESE
YAOGAN 6 3.5 15:31:03 10° SE 15:34:15 28° ENE 15:37:26 10° NNE
ATLAS 5 CENTAUR R/B 2.7 15:30:20 10° SW 15:34:15 42° NW 15:38:32 10° NNE
OAO 2 Rocket 3.5 15:30:47 10° W 15:36:04 84° NNW 15:41:26 10° ENE
YAOGAN 1 3.4 15:36:32 10° SE 15:40:18 30° ENE 15:44:05 10° N
SKYMED 2 3.5 15:36:02 10° NNE 15:40:23 79° ESE 15:44:43 10° S
CSL-04 Rocket 4.0 15:42:41 10° SE 15:47:54 44° ENE 15:53:07 10° N
Okean-O 3.5 15:47:24 10° S 15:51:44 55° W 15:56:05 10° NNW
SL-4 R/B 3.8 15:52:42 10° N 15:54:39 14° NNE 15:56:04 11° NE
Cosmos 1726 Rocket 3.5 15:51:01 10° S 15:55:26 79° E 15:59:51 10° N
Hubble Space Telescope 3.7 15:54:57 10° SSW 15:55:29 10° SSW 15:56:01 10° SSW
CZ-2D R/B 4.4 15:53:10 10° SE 15:56:12 23° ENE 15:59:14 10° NNE
Cosmos 2239 Rocket 4.5 15:50:43 10° N 15:56:48 61° E 16:02:50 10° SSE
OAO 3 Rocket 3.2 15:53:53 10° WSW 15:58:50 82° SSE 16:02:37 17° ENE
Atlas Centaur 2 3.3 15:53:33 10° W 15:59:19 36° SSW 16:03:56 10° SE
Abrixas rocket 3.1 15:57:02 10° SSW 15:59:41 27° SE 16:00:48 21° E
Nadezhda 3 Rocket 4.4 15:55:21 10° SSW 16:01:32 69° W 16:07:51 10° N
Cosmos 2058 Rocket 3.0 15:58:11 10° S 16:02:28 58° E 16:06:45 10° NNE
Cosmos 1821 Rocket 3.9 15:56:24 10° N 16:02:32 78° E 16:08:41 10° S
Cosmos 1953 3.5 16:00:17 10° SSW 16:04:11 47° W 16:08:07 10° N
Cosmos 1271 Rocket 2.7 16:02:27 10° N 16:06:24 66° E 16:10:21 10° SSE
Cosmos 2228 3.7 16:08:33 10° SSW 16:12:52 58° W 16:17:11 10° N
Shenzhou-11 Module 4.1 16:12:19 10° WNW 16:14:16 17° NNW 16:15:33 13° NNE
Envisat 3.7 16:10:14 10° S 16:15:12 57° W 16:20:12 10° NNW
Cosmos 1535 Rocket 4.4 16:10:57 10° N 16:17:06 64° E 16:23:08 10° SSE
Cosmos 1703 3.8 16:14:54 10° NNE 16:18:31 35° E 16:19:41 28° ESE
COSMOS 2406 4.1 16:14:27 10° N 16:19:21 28° ENE 16:20:45 25° E
Cosmos 1934 Rocket 4.0 16:13:06 10° N 16:19:24 67° E 16:25:42 10° SSE
Cosmos 292 Rocket 3.6 16:19:23 10° SSW 16:24:07 84° ESE 16:28:53 10° NNE
Cosmos 1726 2.2 16:21:25 10° S 16:25:04 76° W 16:28:44 10° N
Cosmos 921 Rocket 3.8 16:21:02 10° SSW 16:25:26 54° WNW 16:29:52 10° N
Cosmos 1939 Rocket 3.0 16:23:12 20° SE 16:25:38 48° ENE 16:29:28 10° N
CSL-04 Debris 4.3 16:21:11 10° S 16:26:36 80° WSW 16:32:04 10° NNW
Cosmos 1356 4.2 16:32:58 10° SSW 16:36:19 51° W 16:39:41 10° N
ASTRO E2 4.1 16:34:57 10° W 16:38:29 30° SSW 16:39:41 25° SSE
CZ-4 R/B 3.3 16:38:49 10° SSW 16:42:27 31° W 16:46:11 10° NW
Lacrosse 5 rocket 2.3 16:39:20 10° NNW 16:42:02 31° NNE 16:42:02 31° NNE
ADEOS Rocket 3.7 16:41:30 10° NNE 16:48:41 42° E 16:55:20 10° SSE
Cosmos 1908 4.2 16:50:58 10° SSW 16:54:44 47° W 16:58:32 10° N
Cosmos 1242 Rocket 3.4 16:53:48 10° NNW 16:57:22 49° W 16:58:51 29° SSW
USA 238 DEB 3.5 16:50:58 10° SSW 16:57:29 63° ESE 16:59:52 40° NE
USA 238 3.5 16:51:05 10° SSW 16:57:35 62° ESE 16:59:53 41° NE
Ariane Rocket 3.0 16:53:05 12° SSE 16:57:43 84° WSW 17:02:50 10° NNW
Cosmos 1328 4.5 16:53:56 10° NNW 16:57:49 53° W 17:00:47 16° SSW
Cosmos 2278 Rocket 2.2 16:52:55 10° SSW 16:58:35 84° WNW 17:04:17 10° NNE
BREEZE-M DEB (TANK) 4.0 17:06:44 10° SSW 17:23:18 10° NE 17:10:03 57° SSE
USA 234 3.1 17:10:05 41° NE 17:12:39 89° SSE 17:19:11 10° SW
H-2A R/B 4.0 17:19:01 17° N 17:19:01 17° N 17:20:21 10° N
CZ-4C R/B 4.1 17:10:57 10° NW 17:18:12 44° WSW 17:26:00 10° S
Cosmos 839 Rocket 4.1 17:12:01 10° NNW 17:18:23 80° ENE 17:19:24 66° SE
OAO 2 Rocket 3.7 17:15:48 10° W 17:20:29 66° NW 17:20:29 66° NW
NOSS 3-2 (A) 3.7 17:19:49 10° SSW 17:23:43 48° SSW 17:23:43 48° SSW
Cosmos 1833 Rocket 4.5 17:47:41 10° NNW 17:49:45 23° NNW 17:49:45 23° NNW
Cosmos 2082 Rocket 4.5 18:03:01 10° NNW 18:04:05 16° NNW 18:04:05 16° NNW
CZ-3B R/B 4.3 18:17:46 10° W 18:39:01 60° SSW 18:39:46 60° SSW
